Fort Leonard Wood, MO

7:26 AM CDT on October 22, 2019 (GMT -0500)
Waynesville Regional At Forney Field

Weather History for KTBN - May, 2019

Change the Weather History Date:

Saturday, May 25, 2019

  Actual Average Record
Temperature  
Mean Temperature 76 °F -  
Max Temperature 87 °F 75 °F 92 °F (2012)
Min Temperature 65 °F 58 °F 42 °F (2001)
Cooling Degree Days 10    
Growing Degree Days 26 (Base 50)    
Moisture  
Dew Point 65 °F    
Average Humidity 76    
Maximum Humidity 94    
Minimum Humidity 53    
Precipitation  
Precipitation 0.02 in - - ()
Sea Level Pressure  
Sea Level Pressure 30.02 in    
Wind  
Wind Speed 6 mph (SSW)    
Max Wind Speed 10 mph    
Max Gust Speed 18 mph    
Visibility 10 miles    
Events Rain    
Averages and records for this station are not official NWS values.
T = Trace of Precipitation, MM = Missing Value Source: NWS Daily Summary

Daily Weather History Graph

Daily Weather History Graph

Search for Another Location

Airport or City:

Astronomy

May. 25, 2019 Rise Set
Actual Time 5:51 AM CDT 8:19 PM CDT
Civil Twilight 5:21 AM CDT 8:49 PM CDT
Nautical Twilight 4:44 AM CDT 9:27 PM CDT
Astronomical Twilight 4:03 AM CDT 10:08 PM CDT
Moon 1:21 AM CDT (5/25) 11:49 AM CDT (5/25)
Length of Visible Light 15h 28m
Length of Day
14h 27m
Waning Gibbous, 59% of the Moon is Illuminated
May 25
Waning Gibbous
May 26
Last Quarter
Jun 3
New
Jun 10
First Quarter
Jun 17
Full

Hourly Weather History & Observations

Time (CDT) Temp. Heat Index Dew Point Humidity Pressure Visibility Wind Dir Wind Speed Gust Speed Precip Events Conditions
12:56 AM 71.4 °F - 64.2 °F 78% 30.01 in 10.0 mi South 6.9 mph - N/A   Clear
1:56 AM 71.6 °F - 64.0 °F 77% 30.00 in 9.0 mi South 8.1 mph - N/A   Clear
2:56 AM 70.2 °F - 63.3 °F 79% 30.00 in 10.0 mi Calm Calm - N/A   Mostly Cloudy
3:56 AM 68.5 °F - 62.8 °F 82% 30.01 in 10.0 mi West 4.6 mph - N/A   Mostly Cloudy
4:08 AM 68.0 °F - 62.6 °F 83% 30.02 in 10.0 mi WSW 5.8 mph - N/A   Light Drizzle
4:17 AM 68.0 °F - 62.6 °F 83% 30.03 in 10.0 mi SW 6.9 mph - N/A   Scattered Clouds
4:41 AM 66.2 °F - 62.6 °F 88% 30.04 in 10.0 mi WSW 6.9 mph - N/A   Mostly Cloudy
4:46 AM 66.2 °F - 62.6 °F 88% 30.04 in 10.0 mi WSW 8.1 mph - N/A   Light Drizzle
4:56 AM 66.6 °F - 63.1 °F 89% 30.05 in 10.0 mi SW 5.8 mph - 0.01 in   Light Drizzle
4:57 AM 66.2 °F - 62.6 °F 88% 30.05 in 10.0 mi SW 6.9 mph - N/A   Overcast
5:04 AM 66.2 °F - 62.6 °F 88% 30.05 in 10.0 mi WSW 5.8 mph - N/A   Light Drizzle
5:30 AM 66.2 °F - 62.6 °F 88% 30.02 in 10.0 mi South 6.9 mph - N/A   Partly Cloudy
5:56 AM 65.5 °F - 63.1 °F 92% 29.92 in 10.0 mi East 9.2 mph - 0.01 in   Scattered Clouds
5:57 AM 66.2 °F - 62.6 °F 88% 29.94 in 10.0 mi East 5.8 mph - N/A Rain Light Rain
6:09 AM 66.2 °F - 62.6 °F 88% 29.96 in 10.0 mi Calm Calm - N/A   Partly Cloudy
6:56 AM 65.5 °F - 63.7 °F 94% 30.02 in 10.0 mi SSW 5.8 mph - 0.00 in   Partly Cloudy
7:56 AM 68.9 °F - 63.5 °F 83% 30.02 in 10.0 mi South 8.1 mph - N/A   Partly Cloudy
8:56 AM 74.3 °F - 63.9 °F 70% 30.04 in 10.0 mi SSW 5.8 mph - N/A   Clear
9:56 AM 78.8 °F - 64.2 °F 61% 30.04 in 10.0 mi SSW 9.2 mph - N/A   Clear
10:56 AM 79.3 °F - 66.6 °F 65% 30.06 in 10.0 mi SW 10.4 mph 18.4 mph N/A   Partly Cloudy
12:56 PM 84.0 °F 86.8 °F 67.1 °F 57% 30.05 in 10.0 mi SSW 8.1 mph 18.4 mph N/A   Partly Cloudy
2:56 PM 84.9 °F 87.4 °F 66.4 °F 54% 30.04 in 10.0 mi SSW 10.4 mph - N/A   Scattered Clouds
3:56 PM 85.1 °F 87.9 °F 67.1 °F 55% 30.03 in 10.0 mi SSW 6.9 mph - N/A   Partly Cloudy
4:56 PM 86.2 °F 89.1 °F 67.5 °F 53% 30.02 in 10.0 mi South 9.2 mph - N/A   Partly Cloudy
5:56 PM 85.8 °F 88.8 °F 67.6 °F 54% 30.01 in 10.0 mi SSW 5.8 mph - N/A   Scattered Clouds
6:56 PM 84.0 °F 87.0 °F 68.0 °F 58% 29.99 in 10.0 mi South 6.9 mph - N/A   Partly Cloudy
7:56 PM 79.5 °F - 68.0 °F 68% 29.98 in 10.0 mi SSE 8.1 mph - N/A   Clear
8:56 PM 76.3 °F - 66.9 °F 73% 29.99 in 10.0 mi South 5.8 mph - N/A   Clear
9:56 PM 74.8 °F - 66.7 °F 76% 30.01 in 10.0 mi South 6.9 mph - N/A   Clear
10:56 PM 74.1 °F - 66.0 °F 76% 30.01 in 10.0 mi South 6.9 mph - N/A   Partly Cloudy
11:56 PM 72.7 °F - 66.2 °F 80% 30.02 in 10.0 mi South 5.8 mph - N/A   Clear